Time,TemperatureF,DewpointF,PressureIn,WindDirection,WindDirectionDegrees,WindSpeedMPH,WindSpeedGustMPH,Humidity,HourlyPrecipIn,Conditions,Clouds,dailyrainin,SoftwareType,DateUTC
2013-09-04 00:01:00,70.2,65.5,29.88,SSE,153,0.0,0.0,85,0.00,,SKC,0.00,VWS V13.01,2013-09-04 04:01:00,
2013-09-04 00:07:00,70.2,65.5,29.87,SSE,153,0.0,0.0,85,0.00,,SKC,0.00,VWS V13.01,2013-09-04 04:07:00,
2013-09-04 00:09:00,69.8,65.4,29.88,SSE,153,0.0,0.0,86,0.00,,SKC,0.00,VWS V13.01,2013-09-04 04:09:00,
2013-09-04 00:10:00,69.8,65.4,29.88,SSE,153,0.0,0.0,86,0.00,,SKC,0.00,VWS V13.01,2013-09-04 04:10:00,
2013-09-04 00:15:00,69.6,65.2,29.87,SSE,153,0.0,0.0,86,0.00,,SKC,0.00,VWS V13.01,2013-09-04 04:15:00,
2013-09-04 00:20:00,69.5,65.5,29.87,SSE,153,0.0,0.0,87,0.00,,SKC,0.00,VWS V13.01,2013-09-04 04:20:00,
2013-09-04 00:25:00,69.4,65.4,29.88,SSE,153,0.0,0.0,87,0.00,,SKC,0.00,VWS V13.01,2013-09-04 04:25:00,
2013-09-04 00:30:00,69.3,65.3,29.88,SSE,155,0.0,0.0,87,0.00,,SKC,0.00,VWS V13.01,2013-09-04 04:30:00,
2013-09-04 00:36:00,69.2,65.2,29.87,SSE,155,0.0,0.0,87,0.00,,SKC,0.00,VWS V13.01,2013-09-04 04:36:00,
2013-09-04 00:41:00,69.1,65.1,29.87,SSE,153,0.0,0.0,87,0.00,,SKC,0.00,VWS V13.01,2013-09-04 04:41:00,
2013-09-04 00:46:00,69.0,65.3,29.87,SSE,153,0.0,0.0,88,0.00,,SKC,0.00,VWS V13.01,2013-09-04 04:46:00,
2013-09-04 00:51:00,68.9,64.9,29.87,SSE,154,0.0,0.0,87,0.00,,SKC,0.00,VWS V13.01,2013-09-04 04:51:00,
2013-09-04 00:56:00,68.8,64.8,29.87,SSE,154,0.0,0.0,87,0.00,,SKC,0.00,VWS V13.01,2013-09-04 04:56:00,
2013-09-04 01:01:00,68.8,64.4,29.87,SSE,157,0.0,0.0,86,0.00,,SKC,0.00,VWS V13.01,2013-09-04 05:01:00,
2013-09-04 01:06:00,69.0,64.3,29.87,SSE,153,1.0,1.0,85,0.00,,SKC,0.00,VWS V13.01,2013-09-04 05:06:00,
2013-09-04 01:12:00,69.3,64.6,29.87,SSE,153,0.0,1.0,85,0.00,,SKC,0.00,VWS V13.01,2013-09-04 05:12:00,
2013-09-04 01:17:00,69.3,64.6,29.87,SSW,192,0.0,1.0,85,0.00,,SKC,0.00,VWS V13.01,2013-09-04 05:17:00,
2013-09-04 01:22:00,69.2,64.5,29.87,South,180,0.0,1.0,85,0.00,,SKC,0.00,VWS V13.01,2013-09-04 05:22:00,
2013-09-04 01:27:00,69.1,64.1,29.87,South,180,0.0,1.0,84,0.00,,SKC,0.00,VWS V13.01,2013-09-04 05:27:00,
2013-09-04 01:32:00,68.9,64.2,29.88,South,180,0.0,1.0,85,0.00,,SKC,0.00,VWS V13.01,2013-09-04 05:32:00,
2013-09-04 01:37:00,68.6,63.9,29.88,South,180,0.0,0.0,85,0.00,,SKC,0.00,VWS V13.01,2013-09-04 05:37:00,
2013-09-04 01:42:00,68.5,64.2,29.88,South,180,0.0,0.0,86,0.00,,SKC,0.00,VWS V13.01,2013-09-04 05:42:00,
2013-09-04 01:47:00,68.4,64.1,29.88,South,180,0.0,0.0,86,0.00,,SKC,0.00,VWS V13.01,2013-09-04 05:47:00,
2013-09-04 01:53:00,68.2,63.9,29.88,South,180,0.0,0.0,86,0.00,,SKC,0.00,VWS V13.01,2013-09-04 05:53:00,
2013-09-04 01:58:00,68.1,64.1,29.88,South,180,0.0,0.0,87,0.00,,SKC,0.00,VWS V13.01,2013-09-04 05:58:00,
2013-09-04 02:03:00,67.9,63.9,29.88,South,180,0.0,0.0,87,0.00,,SKC,0.00,VWS V13.01,2013-09-04 06:03:00,
2013-09-04 02:08:00,67.7,63.7,29.88,South,180,0.0,0.0,87,0.00,,SKC,0.00,VWS V13.01,2013-09-04 06:08:00,
2013-09-04 02:13:00,67.6,63.9,29.88,South,180,0.0,0.0,88,0.00,,SKC,0.00,VWS V13.01,2013-09-04 06:13:00,
2013-09-04 02:18:00,67.5,63.8,29.87,South,180,0.0,0.0,88,0.00,,SKC,0.00,VWS V13.01,2013-09-04 06:18:00,
2013-09-04 02:23:00,67.4,63.7,29.87,South,180,0.0,0.0,88,0.00,,SKC,0.00,VWS V13.01,2013-09-04 06:23:00,
2013-09-04 02:29:00,67.4,64.1,29.87,South,180,0.0,0.0,89,0.00,,SKC,0.00,VWS V13.01,2013-09-04 06:29:00,
2013-09-04 02:34:00,67.3,63.6,29.87,South,180,0.0,0.0,88,0.00,,SKC,0.00,VWS V13.01,2013-09-04 06:34:00,
2013-09-04 02:39:00,67.4,63.7,29.87,South,180,0.0,0.0,88,0.00,,SKC,0.00,VWS V13.01,2013-09-04 06:39:00,
2013-09-04 02:44:00,67.3,64.0,29.87,South,180,0.0,0.0,89,0.00,,SKC,0.00,VWS V13.01,2013-09-04 06:44:00,
2013-09-04 02:49:00,67.1,63.4,29.87,South,180,0.0,0.0,88,0.00,,SKC,0.00,VWS V13.01,2013-09-04 06:49:00,
2013-09-04 02:54:00,67.1,63.8,29.87,South,180,0.0,0.0,89,0.00,,SKC,0.00,VWS V13.01,2013-09-04 06:54:00,
2013-09-04 02:59:00,67.0,64.0,29.87,South,180,0.0,0.0,90,0.00,,SKC,0.00,VWS V13.01,2013-09-04 06:59:00,
2013-09-04 03:04:00,66.9,63.9,29.87,South,180,0.0,0.0,90,0.00,,SKC,0.00,VWS V13.01,2013-09-04 07:04:00,
2013-09-04 03:10:00,66.8,63.8,29.87,SSE,165,0.0,1.0,90,0.00,,SKC,0.00,VWS V13.01,2013-09-04 07:10:00,
2013-09-04 03:15:00,66.8,63.5,29.87,SSE,165,0.0,1.0,89,0.00,,SKC,0.00,VWS V13.01,2013-09-04 07:15:00,
2013-09-04 03:20:00,66.8,63.5,29.86,SSE,165,0.0,1.0,89,0.00,,SKC,0.00,VWS V13.01,2013-09-04 07:20:00,
2013-09-04 03:25:00,67.0,63.7,29.87,South,169,0.0,1.0,89,0.00,,SKC,0.00,VWS V13.01,2013-09-04 07:25:00,
2013-09-04 03:30:00,67.0,63.3,29.87,SSE,168,0.0,1.0,88,0.00,,SKC,0.00,VWS V13.01,2013-09-04 07:30:00,
2013-09-04 03:35:00,67.0,63.7,29.87,South,169,0.0,0.0,89,0.00,,SKC,0.00,VWS V13.01,2013-09-04 07:35:00,
2013-09-04 03:40:00,67.0,63.7,29.86,SSE,163,0.0,0.0,89,0.00,,SKC,0.00,VWS V13.01,2013-09-04 07:40:00,
2013-09-04 03:45:00,66.9,63.6,29.86,SSE,163,0.0,0.0,89,0.00,,SKC,0.00,VWS V13.01,2013-09-04 07:45:00,
2013-09-04 03:50:00,66.7,63.7,29.86,SSE,163,0.0,0.0,90,0.00,,SKC,0.00,VWS V13.01,2013-09-04 07:50:00,
2013-09-04 03:56:00,66.5,63.2,29.86,SSE,163,0.0,0.0,89,0.00,,SKC,0.00,VWS V13.01,2013-09-04 07:56:00,
2013-09-04 04:01:00,66.5,63.2,29.86,SSE,168,0.0,0.0,89,0.00,,SKC,0.00,VWS V13.01,2013-09-04 08:01:00,
2013-09-04 04:06:00,66.7,63.0,29.86,South,174,0.0,0.0,88,0.00,,SKC,0.00,VWS V13.01,2013-09-04 08:06:00,
2013-09-04 04:11:00,66.8,63.5,29.86,South,174,0.0,0.0,89,0.00,,SKC,0.00,VWS V13.01,2013-09-04 08:11:00,
2013-09-04 04:16:00,66.9,63.6,29.87,South,174,0.0,0.0,89,0.00,,SKC,0.00,VWS V13.01,2013-09-04 08:16:00,
2013-09-04 04:21:00,66.8,63.5,29.87,South,174,0.0,0.0,89,0.00,,SKC,0.00,VWS V13.01,2013-09-04 08:21:00,
2013-09-04 04:26:00,66.8,63.8,29.87,South,171,0.0,0.0,90,0.00,,SKC,0.00,VWS V13.01,2013-09-04 08:26:00,
2013-09-04 04:31:00,66.7,64.0,29.87,South,171,0.0,0.0,91,0.00,,SKC,0.00,VWS V13.01,2013-09-04 08:31:00,
2013-09-04 04:36:00,66.6,63.9,29.86,South,171,0.0,0.0,91,0.00,,SKC,0.00,VWS V13.01,2013-09-04 08:36:00,
2013-09-04 04:42:00,66.4,64.0,29.86,South,171,0.0,0.0,92,0.00,,SKC,0.00,VWS V13.01,2013-09-04 08:42:00,
2013-09-04 04:47:00,66.3,63.9,29.86,South,171,0.0,0.0,92,0.00,,SKC,0.00,VWS V13.01,2013-09-04 08:47:00,
2013-09-04 04:52:00,66.2,63.8,29.87,South,171,0.0,0.0,92,0.00,,SKC,0.00,VWS V13.01,2013-09-04 08:52:00,
2013-09-04 04:57:00,66.2,64.1,29.87,South,171,0.0,0.0,93,0.00,,SKC,0.00,VWS V13.01,2013-09-04 08:57:00,
2013-09-04 05:02:00,66.1,64.0,29.87,South,171,0.0,0.0,93,0.00,,SKC,0.00,VWS V13.01,2013-09-04 09:02:00,
2013-09-04 05:07:00,66.1,64.0,29.87,South,171,0.0,0.0,93,0.00,,SKC,0.00,VWS V13.01,2013-09-04 09:07:00,
2013-09-04 05:12:00,66.1,64.3,29.88,South,171,0.0,0.0,94,0.00,,SKC,0.00,VWS V13.01,2013-09-04 09:12:00,
2013-09-04 05:17:00,65.9,64.1,29.88,South,171,0.0,0.0,94,0.00,,SKC,0.00,VWS V13.01,2013-09-04 09:17:00,
2013-09-04 05:22:00,65.8,64.0,29.88,South,171,0.0,0.0,94,0.00,,SKC,0.00,VWS V13.01,2013-09-04 09:22:00,
2013-09-04 05:28:00,65.7,63.9,29.88,South,171,0.0,0.0,94,0.00,,SKC,0.00,VWS V13.01,2013-09-04 09:28:00,
2013-09-04 05:33:00,65.5,64.0,29.88,South,171,0.0,0.0,95,0.00,,SKC,0.00,VWS V13.01,2013-09-04 09:33:00,
2013-09-04 05:38:00,65.4,63.9,29.88,South,171,0.0,0.0,95,0.00,,SKC,0.00,VWS V13.01,2013-09-04 09:38:00,
2013-09-04 05:43:00,65.3,63.8,29.88,South,171,0.0,0.0,95,0.00,,SKC,0.00,VWS V13.01,2013-09-04 09:43:00,
2013-09-04 05:48:00,65.2,63.7,29.88,South,171,0.0,0.0,95,0.00,,SKC,0.00,VWS V13.01,2013-09-04 09:48:00,
2013-09-04 05:53:00,65.0,63.8,29.88,South,171,0.0,0.0,96,0.00,,SKC,0.00,VWS V13.01,2013-09-04 09:53:00,
2013-09-04 05:58:00,64.9,63.7,29.89,South,171,0.0,0.0,96,0.00,,SKC,0.00,VWS V13.01,2013-09-04 09:58:00,
2013-09-04 06:03:00,64.8,63.6,29.89,South,171,0.0,0.0,96,0.00,,SKC,0.00,VWS V13.01,2013-09-04 10:03:00,
2013-09-04 06:08:00,64.8,63.6,29.89,South,171,0.0,0.0,96,0.00,,SKC,0.00,VWS V13.01,2013-09-04 10:08:00,
2013-09-04 06:14:00,64.7,63.5,29.89,South,171,0.0,0.0,96,0.00,,SKC,0.00,VWS V13.01,2013-09-04 10:14:00,
2013-09-04 06:19:00,64.7,63.5,29.89,South,171,0.0,0.0,96,0.00,,SKC,0.00,VWS V13.01,2013-09-04 10:19:00,
2013-09-04 06:24:00,64.6,63.4,29.90,South,171,0.0,0.0,96,0.00,,SKC,0.00,VWS V13.01,2013-09-04 10:24:00,
2013-09-04 06:29:00,64.6,63.4,29.90,South,171,0.0,0.0,96,0.00,,SKC,0.00,VWS V13.01,2013-09-04 10:29:00,
2013-09-04 06:34:00,64.5,63.3,29.90,South,171,0.0,0.0,96,0.00,,SKC,0.00,VWS V13.01,2013-09-04 10:34:00,
2013-09-04 06:39:00,64.4,63.2,29.90,South,171,0.0,0.0,96,0.00,,SKC,0.00,VWS V13.01,2013-09-04 10:39:00,
2013-09-04 06:44:00,64.3,63.1,29.90,South,171,0.0,0.0,96,0.00,,SKC,0.00,VWS V13.01,2013-09-04 10:44:00,
2013-09-04 06:49:00,64.1,63.2,29.90,South,171,0.0,0.0,97,0.00,,SKC,0.00,VWS V13.01,2013-09-04 10:49:00,
2013-09-04 06:54:00,64.0,62.8,29.91,South,171,0.0,0.0,96,0.00,,SKC,0.00,VWS V13.01,2013-09-04 10:54:00,
2013-09-04 06:59:00,63.9,62.7,29.91,South,171,0.0,0.0,96,0.00,,SKC,0.00,VWS V13.01,2013-09-04 10:59:00,
2013-09-04 07:05:00,63.8,62.9,29.91,South,171,0.0,0.0,97,0.00,,SKC,0.00,VWS V13.01,2013-09-04 11:05:00,
2013-09-04 07:10:00,63.7,62.8,29.91,South,171,0.0,0.0,97,0.00,,SKC,0.00,VWS V13.01,2013-09-04 11:10:00,
2013-09-04 07:15:00,63.7,62.5,29.91,South,171,0.0,0.0,96,0.00,,SKC,0.00,VWS V13.01,2013-09-04 11:15:00,
2013-09-04 07:20:00,63.7,62.5,29.91,South,171,0.0,0.0,96,0.00,,SKC,0.00,VWS V13.01,2013-09-04 11:20:00,
2013-09-04 07:25:00,63.6,62.4,29.92,South,171,0.0,0.0,96,0.00,,SKC,0.00,VWS V13.01,2013-09-04 11:25:00,
2013-09-04 07:30:00,63.6,62.4,29.92,South,171,0.0,0.0,96,0.00,,SKC,0.00,VWS V13.01,2013-09-04 11:30:00,
2013-09-04 07:35:00,63.5,62.3,29.92,South,171,0.0,0.0,96,0.00,,SKC,0.00,VWS V13.01,2013-09-04 11:35:00,
2013-09-04 07:41:00,63.6,62.4,29.92,South,171,0.0,0.0,96,0.00,,SKC,0.00,VWS V13.01,2013-09-04 11:41:00,
2013-09-04 07:46:00,63.6,62.4,29.92,South,171,0.0,0.0,96,0.00,,SKC,0.00,VWS V13.01,2013-09-04 11:46:00,
2013-09-04 07:51:00,63.6,62.4,29.93,South,171,0.0,0.0,96,0.00,,SKC,0.00,VWS V13.01,2013-09-04 11:51:00,
2013-09-04 07:56:00,63.6,62.4,29.93,South,171,0.0,0.0,96,0.00,,SKC,0.00,VWS V13.01,2013-09-04 11:56:00,
2013-09-04 08:01:00,63.7,62.5,29.93,South,171,0.0,0.0,96,0.00,,SKC,0.00,VWS V13.01,2013-09-04 12:01:00,
2013-09-04 08:06:00,63.8,62.6,29.93,South,171,0.0,0.0,96,0.00,,SKC,0.00,VWS V13.01,2013-09-04 12:06:00,
2013-09-04 08:11:00,64.0,62.8,29.94,South,171,0.0,0.0,96,0.00,,SKC,0.00,VWS V13.01,2013-09-04 12:11:00,
2013-09-04 08:16:00,64.3,63.1,29.94,South,171,0.0,0.0,96,0.00,,SKC,0.00,VWS V13.01,2013-09-04 12:16:00,
2013-09-04 08:22:00,64.4,62.9,29.94,South,171,0.0,0.0,95,0.00,,SKC,0.00,VWS V13.01,2013-09-04 12:22:00,
2013-09-04 08:27:00,64.7,63.2,29.94,South,171,0.0,0.0,95,0.00,,SKC,0.00,VWS V13.01,2013-09-04 12:27:00,
2013-09-04 08:32:00,65.0,63.5,29.94,South,171,0.0,0.0,95,0.00,,SKC,0.00,VWS V13.01,2013-09-04 12:32:00,
2013-09-04 08:37:00,65.3,63.2,29.94,South,171,0.0,0.0,93,0.00,,SKC,0.00,VWS V13.01,2013-09-04 12:37:00,
2013-09-04 08:42:00,65.8,63.7,29.94,South,171,0.0,0.0,93,0.00,,SKC,0.00,VWS V13.01,2013-09-04 12:42:00,
2013-09-04 08:47:00,66.4,64.0,29.95,South,171,0.0,0.0,92,0.00,,SKC,0.00,VWS V13.01,2013-09-04 12:47:00,
2013-09-04 08:52:00,66.9,64.5,29.94,South,171,0.0,0.0,92,0.00,,SKC,0.00,VWS V13.01,2013-09-04 12:52:00,
2013-09-04 08:58:00,67.5,64.2,29.95,ENE,58,0.0,0.0,89,0.00,,SKC,0.00,VWS V13.01,2013-09-04 12:58:00,
2013-09-04 09:03:00,68.4,64.7,29.95,SE,124,0.0,0.0,88,0.00,,SKC,0.00,VWS V13.01,2013-09-04 13:03:00,
2013-09-04 09:08:00,69.0,65.6,29.95,East,101,0.0,0.0,89,0.00,,SKC,0.00,VWS V13.01,2013-09-04 13:08:00,
2013-09-04 09:13:00,69.5,64.5,29.95,North,359,0.0,0.0,84,0.00,,SKC,0.00,VWS V13.01,2013-09-04 13:13:00,
2013-09-04 09:18:00,69.9,64.8,29.95,NE,34,0.0,0.0,84,0.00,,SKC,0.00,VWS V13.01,2013-09-04 13:18:00,
2013-09-04 09:23:00,70.3,65.2,29.95,NE,35,0.0,0.0,84,0.00,,SKC,0.00,VWS V13.01,2013-09-04 13:23:00,
2013-09-04 09:28:00,71.0,65.2,29.96,ENE,67,0.0,1.0,82,0.00,,SKC,0.00,VWS V13.01,2013-09-04 13:28:00,
2013-09-04 09:33:00,71.5,65.0,29.96,NE,50,0.0,1.0,80,0.00,,SKC,0.00,VWS V13.01,2013-09-04 13:33:00,
2013-09-04 09:39:00,71.8,64.9,29.96,NNE,18,0.0,2.0,79,0.00,,SKC,0.00,VWS V13.01,2013-09-04 13:39:00,
2013-09-04 09:44:00,72.2,65.7,29.96,NNE,17,0.0,3.0,80,0.00,,SKC,0.00,VWS V13.01,2013-09-04 13:44:00,
2013-09-04 09:49:00,72.6,65.3,29.96,SE,125,1.0,3.0,78,0.00,,SKC,0.00,VWS V13.01,2013-09-04 13:49:00,
2013-09-04 09:54:00,73.0,65.4,29.96,NNE,17,0.0,3.0,77,0.00,,SKC,0.00,VWS V13.01,2013-09-04 13:54:00,
2013-09-04 09:59:00,73.3,65.3,29.96,NNE,27,0.0,3.0,76,0.00,,SKC,0.00,VWS V13.01,2013-09-04 13:59:00,
2013-09-04 10:04:00,73.5,65.1,29.96,SSE,155,1.0,1.0,75,0.00,,SKC,0.00,VWS V13.01,2013-09-04 14:04:00,
2013-09-04 10:09:00,73.8,65.4,29.97,SSW,203,1.0,3.0,75,0.00,,SKC,0.00,VWS V13.01,2013-09-04 14:09:00,
2013-09-04 10:14:00,73.7,65.3,29.96,SSE,153,0.0,3.0,75,0.00,,SKC,0.00,VWS V13.01,2013-09-04 14:14:00,
2013-09-04 10:20:00,73.9,65.9,29.97,NE,53,0.0,3.0,76,0.00,,SKC,0.00,VWS V13.01,2013-09-04 14:20:00,
2013-09-04 10:25:00,74.1,66.1,29.97,NE,46,1.0,3.0,76,0.00,,SKC,0.00,VWS V13.01,2013-09-04 14:25:00,
2013-09-04 10:30:00,74.2,65.8,29.97,North,4,2.0,3.0,75,0.00,,SKC,0.00,VWS V13.01,2013-09-04 14:30:00,
2013-09-04 10:35:00,74.4,66.0,29.97,NNE,26,4.0,4.0,75,0.00,,SKC,0.00,VWS V13.01,2013-09-04 14:35:00,
2013-09-04 10:40:00,74.7,66.3,29.97,NNE,19,2.0,4.0,75,0.00,,SKC,0.00,VWS V13.01,2013-09-04 14:40:00,
2013-09-04 10:45:00,74.9,66.4,29.97,NNE,29,2.0,4.0,75,0.00,,SKC,0.00,VWS V13.01,2013-09-04 14:45:00,
2013-09-04 10:50:00,75.3,66.1,29.97,South,169,0.0,4.0,73,0.00,,SKC,0.00,VWS V13.01,2013-09-04 14:50:00,
2013-09-04 10:55:00,75.9,67.8,29.97,North,359,0.0,4.0,76,0.00,,SKC,0.00,VWS V13.01,2013-09-04 14:55:00,
2013-09-04 11:00:00,76.4,67.1,29.97,NE,51,0.0,4.0,73,0.00,,SKC,0.00,VWS V13.01,2013-09-04 15:00:00,
2013-09-04 11:06:00,76.7,67.0,29.97,ENE,65,0.0,2.0,72,0.00,,SKC,0.00,VWS V13.01,2013-09-04 15:06:00,
2013-09-04 11:11:00,77.3,66.8,29.97,SSE,155,3.0,3.0,70,0.00,,SKC,0.00,VWS V13.01,2013-09-04 15:11:00,
2013-09-04 11:16:00,77.2,66.7,29.97,North,359,0.0,3.0,70,0.00,,SKC,0.00,VWS V13.01,2013-09-04 15:16:00,
2013-09-04 11:21:00,77.3,67.6,29.97,NNE,25,0.0,3.0,72,0.00,,SKC,0.00,VWS V13.01,2013-09-04 15:21:00,
2013-09-04 11:26:00,77.7,67.1,29.97,ENE,60,3.0,3.0,70,0.00,,SKC,0.00,VWS V13.01,2013-09-04 15:26:00,
2013-09-04 11:31:00,77.9,66.9,29.97,NNE,20,1.0,3.0,69,0.00,,SKC,0.00,VWS V13.01,2013-09-04 15:31:00,
2013-09-04 11:36:00,78.4,67.4,29.97,NNE,25,3.0,3.0,69,0.00,,SKC,0.00,VWS V13.01,2013-09-04 15:36:00,
2013-09-04 11:42:00,78.6,67.2,29.98,NE,44,1.0,3.0,68,0.00,,SKC,0.00,VWS V13.01,2013-09-04 15:42:00,
2013-09-04 11:47:00,78.7,68.1,29.97,NE,49,0.0,3.0,70,0.00,,SKC,0.00,VWS V13.01,2013-09-04 15:47:00,
2013-09-04 11:52:00,79.1,68.5,29.97,NNE,27,0.0,3.0,70,0.00,,SKC,0.00,VWS V13.01,2013-09-04 15:52:00,
2013-09-04 11:57:00,79.5,68.0,29.97,NE,35,0.0,3.0,68,0.00,,SKC,0.00,VWS V13.01,2013-09-04 15:57:00,
2013-09-04 12:02:00,79.9,68.0,29.97,NE,54,1.0,3.0,67,0.00,,SKC,0.00,VWS V13.01,2013-09-04 16:02:00,
2013-09-04 12:07:00,79.9,68.0,29.97,NW,323,0.0,1.0,67,0.00,,SKC,0.00,VWS V13.01,2013-09-04 16:07:00,
2013-09-04 12:12:00,80.1,68.6,29.97,North,349,0.0,4.0,68,0.00,,SKC,0.00,VWS V13.01,2013-09-04 16:12:00,
2013-09-04 12:17:00,80.3,67.5,29.97,NE,42,0.0,4.0,65,0.00,,SKC,0.00,VWS V13.01,2013-09-04 16:17:00,
2013-09-04 12:23:00,80.6,68.6,29.97,North,4,0.0,4.0,67,0.00,,SKC,0.00,VWS V13.01,2013-09-04 16:23:00,
2013-09-04 12:28:00,80.8,67.5,29.97,NNE,29,0.0,4.0,64,0.00,,SKC,0.00,VWS V13.01,2013-09-04 16:28:00,
2013-09-04 12:33:00,81.0,68.1,29.97,North,349,1.0,3.0,65,0.00,,SKC,0.00,VWS V13.01,2013-09-04 16:33:00,
2013-09-04 12:38:00,81.4,67.6,29.97,ENE,60,0.0,3.0,63,0.00,,SKC,0.00,VWS V13.01,2013-09-04 16:38:00,
2013-09-04 12:43:00,81.8,68.0,29.97,NNE,20,0.0,3.0,63,0.00,,SKC,0.00,VWS V13.01,2013-09-04 16:43:00,
2013-09-04 12:48:00,81.8,66.6,29.97,NNW,333,0.0,3.0,60,0.00,,SKC,0.00,VWS V13.01,2013-09-04 16:48:00,
2013-09-04 12:53:00,82.0,67.2,29.97,NNE,28,0.0,3.0,61,0.00,,SKC,0.00,VWS V13.01,2013-09-04 16:53:00,
2013-09-04 12:59:00,82.3,66.1,29.97,SW,224,0.0,3.0,58,0.00,,SKC,0.00,VWS V13.01,2013-09-04 16:59:00,
2013-09-04 13:04:00,82.5,65.2,29.97,NNW,345,1.0,1.0,56,0.00,,SKC,0.00,VWS V13.01,2013-09-04 17:04:00,
2013-09-04 13:09:00,82.6,66.3,29.97,NNE,19,0.0,1.0,58,0.00,,SKC,0.00,VWS V13.01,2013-09-04 17:09:00,
2013-09-04 13:14:00,82.9,67.6,29.97,SSE,167,1.0,1.0,60,0.00,,SKC,0.00,VWS V13.01,2013-09-04 17:14:00,
2013-09-04 13:19:00,83.7,64.2,29.96,NE,34,1.0,1.0,52,0.00,,SKC,0.00,VWS V13.01,2013-09-04 17:19:00,
2013-09-04 13:24:00,83.9,67.1,29.96,NE,34,1.0,1.0,57,0.00,,SKC,0.00,VWS V13.01,2013-09-04 17:24:00,
2013-09-04 13:29:00,84.5,67.1,29.96,South,172,0.0,1.0,56,0.00,,SKC,0.00,VWS V13.01,2013-09-04 17:29:00,
2013-09-04 13:35:00,84.1,66.2,29.96,West,270,1.0,2.0,55,0.00,,SKC,0.00,VWS V13.01,2013-09-04 17:35:00,
2013-09-04 13:40:00,82.9,64.0,29.96,NNE,25,0.0,2.0,53,0.00,,SKC,0.00,VWS V13.01,2013-09-04 17:40:00,
2013-09-04 13:45:00,82.3,65.6,29.95,NNE,25,0.0,2.0,57,0.00,,SKC,0.00,VWS V13.01,2013-09-04 17:45:00,
2013-09-04 13:50:00,82.5,66.2,29.95,NNE,25,0.0,2.0,58,0.00,,SKC,0.00,VWS V13.01,2013-09-04 17:50:00,
2013-09-04 13:55:00,83.0,65.2,29.95,North,360,0.0,2.0,55,0.00,,SKC,0.00,VWS V13.01,2013-09-04 17:55:00,
2013-09-04 14:00:00,83.4,65.6,29.95,NNE,29,1.0,3.0,55,0.00,,SKC,0.00,VWS V13.01,2013-09-04 18:00:00,
2013-09-04 14:05:00,83.8,65.9,29.95,SW,226,0.0,1.0,55,0.00,,SKC,0.00,VWS V13.01,2013-09-04 18:05:00,
2013-09-04 14:11:00,84.5,66.6,29.95,SE,137,0.0,1.0,55,0.00,,SKC,0.00,VWS V13.01,2013-09-04 18:11:00,
2013-09-04 14:16:00,84.9,67.5,29.95,NNE,33,1.0,1.0,56,0.00,,SKC,0.00,VWS V13.01,2013-09-04 18:16:00,
2013-09-04 14:21:00,84.2,65.8,29.94,North,359,0.0,1.0,54,0.00,,SKC,0.00,VWS V13.01,2013-09-04 18:21:00,
2013-09-04 14:26:00,84.1,65.7,29.94,North,359,0.0,1.0,54,0.00,,SKC,0.00,VWS V13.01,2013-09-04 18:26:00,
2013-09-04 14:31:00,83.8,65.4,29.94,NE,41,0.0,2.0,54,0.00,,SKC,0.00,VWS V13.01,2013-09-04 18:31:00,
2013-09-04 14:36:00,84.0,66.1,29.94,West,274,0.0,1.0,55,0.00,,SKC,0.00,VWS V13.01,2013-09-04 18:36:00,
2013-09-04 14:41:00,84.5,65.0,29.94,NE,39,1.0,1.0,52,0.00,,SKC,0.00,VWS V13.01,2013-09-04 18:41:00,
2013-09-04 14:47:00,84.2,65.2,29.94,North,355,1.0,1.0,53,0.00,,SKC,0.00,VWS V13.01,2013-09-04 18:47:00,
2013-09-04 14:52:00,84.2,65.2,29.94,NE,52,1.0,1.0,53,0.00,,SKC,0.00,VWS V13.01,2013-09-04 18:52:00,
2013-09-04 14:57:00,84.5,66.1,29.94,NNE,25,0.0,1.0,54,0.00,,SKC,0.00,VWS V13.01,2013-09-04 18:57:00,
2013-09-04 15:02:00,84.3,64.2,29.94,NNE,21,1.0,1.0,51,0.00,,SKC,0.00,VWS V13.01,2013-09-04 19:02:00,
2013-09-04 15:07:00,84.2,65.2,29.94,ENE,57,0.0,0.0,53,0.00,,SKC,0.00,VWS V13.01,2013-09-04 19:07:00,
2013-09-04 15:12:00,84.6,65.1,29.94,NNE,32,1.0,1.0,52,0.00,,SKC,0.00,VWS V13.01,2013-09-04 19:12:00,
2013-09-04 15:17:00,84.8,65.8,29.94,ENE,58,0.0,1.0,53,0.00,,SKC,0.00,VWS V13.01,2013-09-04 19:17:00,
2013-09-04 15:22:00,84.9,66.9,29.94,ENE,58,0.0,1.0,55,0.00,,SKC,0.00,VWS V13.01,2013-09-04 19:22:00,
2013-09-04 15:28:00,84.7,66.2,29.93,NNE,12,0.0,1.0,54,0.00,,SKC,0.00,VWS V13.01,2013-09-04 19:28:00,
2013-09-04 15:33:00,84.7,66.2,29.93,NW,326,0.0,0.0,54,0.00,,SKC,0.00,VWS V13.01,2013-09-04 19:33:00,
2013-09-04 15:38:00,84.5,65.0,29.93,NNE,22,1.0,1.0,52,0.00,,SKC,0.00,VWS V13.01,2013-09-04 19:38:00,
2013-09-04 15:43:00,84.1,64.6,29.93,North,6,0.0,1.0,52,0.00,,SKC,0.00,VWS V13.01,2013-09-04 19:43:00,
2013-09-04 15:48:00,84.8,65.8,29.93,ESE,121,0.0,1.0,53,0.00,,SKC,0.00,VWS V13.01,2013-09-04 19:48:00,
2013-09-04 15:53:00,85.5,65.3,29.93,NE,36,1.0,1.0,51,0.00,,SKC,0.00,VWS V13.01,2013-09-04 19:53:00,
2013-09-04 15:58:00,85.1,63.8,29.93,ENE,58,0.0,2.0,49,0.00,,SKC,0.00,VWS V13.01,2013-09-04 19:58:00,
2013-09-04 16:04:00,85.3,64.6,29.93,North,11,0.0,1.0,50,0.00,,SKC,0.00,VWS V13.01,2013-09-04 20:04:00,
2013-09-04 16:09:00,85.5,64.8,29.92,NE,40,1.0,1.0,50,0.00,,SKC,0.00,VWS V13.01,2013-09-04 20:09:00,
2013-09-04 16:14:00,85.8,65.0,29.93,SSE,153,0.0,3.0,50,0.00,,SKC,0.00,VWS V13.01,2013-09-04 20:14:00,
2013-09-04 16:19:00,86.3,64.3,29.93,South,173,1.0,3.0,48,0.00,,SKC,0.00,VWS V13.01,2013-09-04 20:19:00,
2013-09-04 16:24:00,86.1,65.3,29.92,SW,214,1.0,3.0,50,0.00,,SKC,0.00,VWS V13.01,2013-09-04 20:24:00,
2013-09-04 16:29:00,85.2,65.1,29.92,NW,310,0.0,3.0,51,0.00,,SKC,0.00,VWS V13.01,2013-09-04 20:29:00,
2013-09-04 16:34:00,85.0,64.3,29.92,NNE,20,1.0,2.0,50,0.00,,SKC,0.00,VWS V13.01,2013-09-04 20:34:00,
2013-09-04 16:39:00,85.0,66.5,29.92,North,360,0.0,2.0,54,0.00,,SKC,0.00,VWS V13.01,2013-09-04 20:39:00,
2013-09-04 16:45:00,84.6,66.1,29.92,NNE,27,0.0,2.0,54,0.00,,SKC,0.00,VWS V13.01,2013-09-04 20:45:00,
2013-09-04 16:50:00,83.8,64.9,29.92,NE,34,0.0,2.0,53,0.00,,SKC,0.00,VWS V13.01,2013-09-04 20:50:00,
2013-09-04 16:55:00,83.5,66.2,29.92,NE,34,0.0,2.0,56,0.00,,SKC,0.00,VWS V13.01,2013-09-04 20:55:00,
2013-09-04 17:00:00,83.3,66.0,29.92,NE,34,0.0,2.0,56,0.00,,SKC,0.00,VWS V13.01,2013-09-04 21:00:00,
2013-09-04 17:05:00,83.2,66.9,29.92,NE,34,0.0,1.0,58,0.00,,SKC,0.00,VWS V13.01,2013-09-04 21:05:00,
2013-09-04 17:10:00,82.9,65.6,29.92,NNE,32,0.0,1.0,56,0.00,,SKC,0.00,VWS V13.01,2013-09-04 21:10:00,
2013-09-04 17:15:00,82.7,66.4,29.92,NNE,32,0.0,1.0,58,0.00,,SKC,0.00,VWS V13.01,2013-09-04 21:15:00,
2013-09-04 17:20:00,82.2,67.9,29.91,NNE,32,0.0,1.0,62,0.00,,SKC,0.00,VWS V13.01,2013-09-04 21:20:00,
2013-09-04 17:26:00,81.6,66.9,29.91,NNE,32,0.0,1.0,61,0.00,,SKC,0.00,VWS V13.01,2013-09-04 21:26:00,
2013-09-04 17:31:00,81.2,67.9,29.91,NNE,32,0.0,1.0,64,0.00,,SKC,0.00,VWS V13.01,2013-09-04 21:31:00,
2013-09-04 17:36:00,80.8,67.9,29.91,NNE,32,0.0,0.0,65,0.00,,SKC,0.00,VWS V13.01,2013-09-04 21:36:00,
2013-09-04 17:41:00,80.5,69.0,29.91,NNE,32,0.0,0.0,68,0.00,,SKC,0.00,VWS V13.01,2013-09-04 21:41:00,
2013-09-04 17:46:00,79.9,68.0,29.91,NNE,32,0.0,0.0,67,0.00,,SKC,0.00,VWS V13.01,2013-09-04 21:46:00,
2013-09-04 17:51:00,79.8,66.6,29.91,NNE,32,0.0,0.0,64,0.00,,SKC,0.00,VWS V13.01,2013-09-04 21:51:00,
2013-09-04 17:56:00,80.0,67.6,29.91,NNE,32,0.0,0.0,66,0.00,,SKC,0.00,VWS V13.01,2013-09-04 21:56:00,
2013-09-04 18:02:00,80.1,67.7,29.91,NNE,32,0.0,0.0,66,0.00,,SKC,0.00,VWS V13.01,2013-09-04 22:02:00,
2013-09-04 18:07:00,80.1,68.2,29.91,NNE,32,0.0,0.0,67,0.00,,SKC,0.00,VWS V13.01,2013-09-04 22:07:00,
2013-09-04 18:12:00,80.0,68.9,29.91,NNE,32,0.0,0.0,69,0.00,,SKC,0.00,VWS V13.01,2013-09-04 22:12:00,
2013-09-04 18:17:00,80.0,68.9,29.91,NNE,32,0.0,0.0,69,0.00,,SKC,0.00,VWS V13.01,2013-09-04 22:17:00,
2013-09-04 18:22:00,79.9,67.1,29.91,NNE,32,0.0,0.0,65,0.00,,SKC,0.00,VWS V13.01,2013-09-04 22:22:00,
2013-09-04 18:27:00,79.8,68.3,29.91,NNE,32,0.0,0.0,68,0.00,,SKC,0.00,VWS V13.01,2013-09-04 22:27:00,
2013-09-04 18:32:00,79.7,68.2,29.91,NNE,32,0.0,0.0,68,0.00,,SKC,0.00,VWS V13.01,2013-09-04 22:32:00,
2013-09-04 18:37:00,79.4,68.3,29.91,NNE,32,0.0,0.0,69,0.00,,SKC,0.00,VWS V13.01,2013-09-04 22:37:00,
2013-09-04 18:43:00,78.7,68.9,29.91,NNE,32,0.0,0.0,72,0.00,,SKC,0.00,VWS V13.01,2013-09-04 22:43:00,
2013-09-04 18:48:00,77.9,69.3,29.91,NNE,32,0.0,0.0,75,0.00,,SKC,0.00,VWS V13.01,2013-09-04 22:48:00,
2013-09-04 18:53:00,77.4,69.6,29.91,NNE,32,0.0,0.0,77,0.00,,SKC,0.00,VWS V13.01,2013-09-04 22:53:00,
2013-09-04 18:58:00,77.1,68.6,29.91,NNE,32,0.0,0.0,75,0.00,,SKC,0.00,VWS V13.01,2013-09-04 22:58:00,
2013-09-04 19:03:00,76.6,68.1,29.91,NNE,32,0.0,0.0,75,0.00,,SKC,0.00,VWS V13.01,2013-09-04 23:03:00,
2013-09-04 19:08:00,76.2,68.5,29.91,NNE,32,0.0,0.0,77,0.00,,SKC,0.00,VWS V13.01,2013-09-04 23:08:00,
2013-09-04 19:14:00,75.8,68.1,29.91,NNE,32,0.0,0.0,77,0.00,,SKC,0.00,VWS V13.01,2013-09-04 23:14:00,
2013-09-04 19:19:00,75.5,68.2,29.91,NNE,32,0.0,0.0,78,0.00,,SKC,0.00,VWS V13.01,2013-09-04 23:19:00,
2013-09-04 19:24:00,75.3,68.0,29.91,NNE,32,0.0,0.0,78,0.00,,SKC,0.00,VWS V13.01,2013-09-04 23:24:00,
2013-09-04 19:29:00,75.0,67.7,29.91,NNE,32,0.0,0.0,78,0.00,,SKC,0.00,VWS V13.01,2013-09-04 23:29:00,
2013-09-04 19:34:00,74.6,66.9,29.91,NNE,32,0.0,0.0,77,0.00,,SKC,0.00,VWS V13.01,2013-09-04 23:34:00,
2013-09-04 19:39:00,74.4,67.1,29.91,NNE,32,0.0,0.0,78,0.00,,SKC,0.00,VWS V13.01,2013-09-04 23:39:00,
2013-09-04 19:45:00,74.2,66.9,29.91,NNE,32,0.0,0.0,78,0.00,,SKC,0.00,VWS V13.01,2013-09-04 23:45:00,
2013-09-04 19:50:00,73.9,66.6,29.91,NNE,32,0.0,0.0,78,0.00,,SKC,0.00,VWS V13.01,2013-09-04 23:50:00,
2013-09-04 19:55:00,73.8,66.9,29.91,NNE,32,0.0,0.0,79,0.00,,SKC,0.00,VWS V13.01,2013-09-04 23:55:00,
2013-09-04 20:00:00,73.6,66.7,29.91,NNE,32,0.0,0.0,79,0.00,,SKC,0.00,VWS V13.01,2013-09-05 00:00:00,
2013-09-04 20:05:00,73.4,66.9,29.91,NNE,32,0.0,0.0,80,0.00,,SKC,0.00,VWS V13.01,2013-09-05 00:05:00,
2013-09-04 20:10:00,73.1,66.6,29.91,NNE,32,0.0,0.0,80,0.00,,SKC,0.00,VWS V13.01,2013-09-05 00:10:00,
2013-09-04 20:15:00,73.0,66.5,29.92,NNE,32,0.0,0.0,80,0.00,,SKC,0.00,VWS V13.01,2013-09-05 00:15:00,
2013-09-04 20:21:00,72.9,66.7,29.92,NNE,32,0.0,0.0,81,0.00,,SKC,0.00,VWS V13.01,2013-09-05 00:21:00,
2013-09-04 20:26:00,72.7,66.5,29.92,NNE,32,0.0,0.0,81,0.00,,SKC,0.00,VWS V13.01,2013-09-05 00:26:00,
2013-09-04 20:31:00,72.5,66.3,29.92,NNE,32,0.0,0.0,81,0.00,,SKC,0.00,VWS V13.01,2013-09-05 00:31:00,
2013-09-04 20:36:00,72.3,66.5,29.92,NNE,32,0.0,0.0,82,0.00,,SKC,0.00,VWS V13.01,2013-09-05 00:36:00,
2013-09-04 20:41:00,72.1,66.7,29.92,NNE,32,0.0,0.0,83,0.00,,SKC,0.00,VWS V13.01,2013-09-05 00:41:00,
2013-09-04 20:46:00,71.9,67.2,29.93,NNE,32,0.0,0.0,85,0.00,,SKC,0.00,VWS V13.01,2013-09-05 00:46:00,
2013-09-04 20:51:00,71.7,67.3,29.93,NNE,32,0.0,0.0,86,0.00,,SKC,0.00,VWS V13.01,2013-09-05 00:51:00,
2013-09-04 20:56:00,71.6,67.2,29.93,NNE,32,0.0,0.0,86,0.00,,SKC,0.00,VWS V13.01,2013-09-05 00:56:00,
2013-09-04 21:02:00,71.4,67.0,29.94,NNE,32,0.0,0.0,86,0.00,,SKC,0.00,VWS V13.01,2013-09-05 01:02:00,
2013-09-04 21:07:00,71.1,67.4,29.94,NNE,32,0.0,0.0,88,0.00,,SKC,0.00,VWS V13.01,2013-09-05 01:07:00,
2013-09-04 21:12:00,71.2,67.8,29.94,NE,45,0.0,0.0,89,0.00,,SKC,0.00,VWS V13.01,2013-09-05 01:12:00,
2013-09-04 21:17:00,71.4,67.7,29.94,ENE,57,0.0,0.0,88,0.00,,SKC,0.00,VWS V13.01,2013-09-05 01:17:00,
2013-09-04 21:22:00,71.4,67.7,29.94,ENE,57,0.0,0.0,88,0.00,,SKC,0.00,VWS V13.01,2013-09-05 01:22:00,
2013-09-04 21:27:00,71.4,67.7,29.95,ENE,57,0.0,0.0,88,0.00,,SKC,0.00,VWS V13.01,2013-09-05 01:27:00,
2013-09-04 21:32:00,71.3,67.6,29.95,ESE,123,0.0,0.0,88,0.00,,SKC,0.00,VWS V13.01,2013-09-05 01:32:00,
2013-09-04 21:38:00,71.3,67.2,29.95,SE,128,0.0,0.0,87,0.00,,SKC,0.00,VWS V13.01,2013-09-05 01:38:00,
2013-09-04 21:43:00,71.6,66.9,29.95,NE,49,0.0,0.0,85,0.00,,SKC,0.00,VWS V13.01,2013-09-05 01:43:00,
2013-09-04 21:48:00,71.7,66.9,29.96,NE,56,0.0,0.0,85,0.00,,SKC,0.00,VWS V13.01,2013-09-05 01:48:00,
2013-09-04 21:53:00,71.7,66.6,29.96,SSE,158,0.0,1.0,84,0.00,,SKC,0.00,VWS V13.01,2013-09-05 01:53:00,
2013-09-04 21:58:00,71.7,66.6,29.96,SSE,162,0.0,1.0,84,0.00,,SKC,0.00,VWS V13.01,2013-09-05 01:58:00,
2013-09-04 22:03:00,71.7,66.9,29.96,ESE,113,0.0,0.0,85,0.00,,SKC,0.00,VWS V13.01,2013-09-05 02:03:00,
2013-09-04 22:08:00,71.5,66.8,29.96,ESE,114,0.0,0.0,85,0.00,,SKC,0.00,VWS V13.01,2013-09-05 02:08:00,
2013-09-04 22:14:00,71.3,66.6,29.97,ESE,114,0.0,0.0,85,0.00,,SKC,0.00,VWS V13.01,2013-09-05 02:14:00,
2013-09-04 22:19:00,71.1,66.4,29.97,SE,124,0.0,0.0,85,0.00,,SKC,0.00,VWS V13.01,2013-09-05 02:19:00,
2013-09-04 22:24:00,70.9,66.5,29.97,South,179,0.0,1.0,86,0.00,,SKC,0.00,VWS V13.01,2013-09-05 02:24:00,
2013-09-04 22:29:00,70.7,66.3,29.97,South,179,0.0,1.0,86,0.00,,SKC,0.00,VWS V13.01,2013-09-05 02:29:00,
2013-09-04 22:34:00,70.4,66.0,29.97,South,179,0.0,0.0,86,0.00,,SKC,0.00,VWS V13.01,2013-09-05 02:34:00,
2013-09-04 22:39:00,70.1,66.1,29.97,South,179,0.0,0.0,87,0.00,,SKC,0.00,VWS V13.01,2013-09-05 02:39:00,
2013-09-04 22:44:00,69.9,66.2,29.97,South,179,0.0,0.0,88,0.00,,SKC,0.00,VWS V13.01,2013-09-05 02:44:00,
2013-09-04 22:49:00,69.7,66.0,29.97,South,179,0.0,0.0,88,0.00,,SKC,0.00,VWS V13.01,2013-09-05 02:49:00,
2013-09-04 22:55:00,69.5,65.8,29.97,South,178,0.0,0.0,88,0.00,,SKC,0.00,VWS V13.01,2013-09-05 02:55:00,
2013-09-04 23:00:00,69.4,65.7,29.97,SSE,158,0.0,0.0,88,0.00,,SKC,0.00,VWS V13.01,2013-09-05 03:00:00,
2013-09-04 23:05:00,69.2,65.5,29.97,SSE,158,0.0,0.0,88,0.00,,SKC,0.00,VWS V13.01,2013-09-05 03:05:00,
2013-09-04 23:10:00,69.1,65.4,29.98,SSE,158,0.0,0.0,88,0.00,,SKC,0.00,VWS V13.01,2013-09-05 03:10:00,
2013-09-04 23:15:00,69.0,65.3,29.98,SSE,158,0.0,0.0,88,0.00,,SKC,0.00,VWS V13.01,2013-09-05 03:15:00,
2013-09-04 23:20:00,68.9,65.2,29.98,SSE,158,0.0,0.0,88,0.00,,SKC,0.00,VWS V13.01,2013-09-05 03:20:00,
2013-09-04 23:25:00,68.8,65.1,29.98,SSE,157,0.0,0.0,88,0.00,,SKC,0.00,VWS V13.01,2013-09-05 03:25:00,
2013-09-04 23:31:00,68.8,65.1,29.98,SSE,157,0.0,0.0,88,0.00,,SKC,0.00,VWS V13.01,2013-09-05 03:31:00,
2013-09-04 23:36:00,68.7,65.0,29.99,SSE,157,0.0,0.0,88,0.00,,SKC,0.00,VWS V13.01,2013-09-05 03:36:00,
2013-09-04 23:41:00,68.6,64.9,29.99,SSE,157,0.0,0.0,88,0.00,,SKC,0.00,VWS V13.01,2013-09-05 03:41:00,
2013-09-04 23:46:00,68.6,64.9,29.99,SSE,157,0.0,0.0,88,0.00,,SKC,0.00,VWS V13.01,2013-09-05 03:46:00,
2013-09-04 23:51:00,68.5,65.1,29.99,SSE,157,0.0,0.0,89,0.00,,SKC,0.00,VWS V13.01,2013-09-05 03:51:00,
2013-09-04 23:56:00,68.4,64.7,29.99,SSE,157,0.0,0.0,88,0.00,,SKC,0.00,VWS V13.01,2013-09-05 03:56:00,